Newberry, MI

12:13 PM EDT on July 23, 2016 (GMT -0400)
Luce County

Weather History for KERY - August, 2013

Change the Weather History Date:

Wednesday, August 7, 2013

  Actual Average Record
Temperature  
Mean Temperature 60 °F -  
Max Temperature 68 °F 76 °F 91 °F (2001)
Min Temperature 51 °F 53 °F 40 °F (1990)
Degree Days  
Heating Degree Days 5    
Growing Degree Days 10 (Base 50)    
Moisture  
Dew Point 60 °F    
Average Humidity 90    
Maximum Humidity 100    
Minimum Humidity 74    
Precipitation  
Precipitation 0.19 in - - ()
Sea Level Pressure  
Sea Level Pressure 29.81 in    
Wind  
Wind Speed 9 mph (WNW)    
Max Wind Speed 15 mph    
Max Gust Speed 25 mph    
Visibility 7 miles    
Events Rain    
Averages and records for this station are not official NWS values.
T = Trace of Precipitation, MM = Missing Value Source: NWS Daily Summary

Daily Weather History Graph

Daily Weather History Graph

Search for Another Location

Airport or City:

Trip Planner

Search our weather history database for the weather conditions in past years. The results will help you decide how hot, cold, wet, or windy it might be!

Date:

Astronomy

Aug. 07, 2013 Rise Set
Actual Time 6:30 AM EDT 9:03 PM EDT
Civil Twilight 5:56 AM EDT 9:37 PM EDT
Nautical Twilight 5:14 AM EDT 10:19 PM EDT
Astronomical Twilight 4:25 AM EDT 11:08 PM EDT
Moon 7:25 AM EDT (8/7) 9:01 PM EDT (8/7)
Length of Visible Light 15h 40m
Length of Day
14h 32m
New Moon, 1% of the Moon is Illuminated
Aug 7
New Moon
Aug 14
First Quarter
Aug 20
Full
Aug 28
Last Quarter
Sep 5
New

Hourly Weather History & Observations

Time (EDT) Temp. Dew Point Humidity Pressure Visibility Wind Dir Wind Speed Gust Speed Precip Events Conditions
12:15 AM 64.9 °F 64.0 °F 97% 29.78 in 4.0 mi North - - N/A   Overcast
12:35 AM 64.9 °F 64.0 °F 97% 29.77 in 4.0 mi SW 6.9 mph - N/A   Overcast
12:54 AM 65.3 °F 64.4 °F 97% 29.77 in 4.0 mi SSW 8.1 mph - N/A   Overcast
1:15 AM 65.5 °F 64.6 °F 97% 29.76 in 4.0 mi SSW 11.5 mph 16.1 mph N/A   Overcast
1:35 AM 65.7 °F 64.9 °F 98% 29.75 in 3.0 mi SSW 10.4 mph - N/A   Overcast
1:55 AM 65.8 °F 64.9 °F 97% 29.75 in 3.0 mi North - - N/A   Overcast
2:15 AM 66.2 °F 64.9 °F 96% 29.74 in 4.0 mi North - - N/A   Overcast
2:35 AM 66.0 °F 65.1 °F 97% 29.74 in 3.0 mi North - - N/A   Overcast
2:55 AM 66.2 °F 65.3 °F 97% 29.74 in 3.0 mi North - - N/A   Overcast
3:15 AM 66.0 °F 65.3 °F 98% 29.74 in 3.0 mi North - - N/A   Overcast
3:34 AM 66.2 °F 65.3 °F 97% 29.72 in 3.0 mi North - - N/A   Overcast
3:55 AM 65.8 °F 65.3 °F 98% 29.71 in 3.0 mi North - - N/A Rain Light Rain
4:15 AM 65.7 °F 65.3 °F 99% 29.70 in 2.5 mi North - - N/A   Overcast
4:34 AM 65.7 °F 65.3 °F 99% 29.69 in 3.0 mi North - - N/A   Overcast
4:55 AM 65.3 °F 64.6 °F 98% 29.71 in 3.0 mi North - - N/A   Overcast
5:15 AM 65.3 °F 64.4 °F 97% 29.70 in 3.0 mi North - - 0.02 in Rain Rain
5:34 AM 64.6 °F 64.2 °F 99% 29.69 in 2.5 mi Calm Calm - 0.04 in Rain Rain
5:55 AM 64.4 °F 64.0 °F 99% 29.69 in 2.5 mi North - - 0.07 in Rain Rain
6:15 AM 64.6 °F 64.4 °F 99% 29.71 in 2.5 mi North - - 0.04 in Rain Heavy Rain
6:35 AM 64.4 °F 63.9 °F 98% 29.71 in 3.0 mi North - - 0.09 in Rain Rain
6:55 AM 64.0 °F 63.7 °F 99% 29.71 in 3.0 mi NNW 3.5 mph - 0.09 in Rain Light Rain
7:15 AM 63.9 °F 63.5 °F 99% 29.70 in 3.0 mi West 6.9 mph - 0.01 in Rain Rain
7:35 AM 63.5 °F 63.5 °F 100% 29.71 in 2.0 mi North - - 0.01 in Rain Light Rain
7:55 AM 63.9 °F 63.5 °F 99% 29.72 in 3.0 mi West 9.2 mph 18.4 mph 0.02 in Rain Light Rain
8:14 AM 64.0 °F 63.5 °F 98% 29.72 in 4.0 mi West 5.8 mph 18.4 mph N/A   Overcast
8:35 AM 63.9 °F 63.3 °F 98% 29.72 in 5.0 mi West 11.5 mph 18.4 mph N/A   Overcast
8:55 AM 64.4 °F 63.5 °F 97% 29.73 in 7.0 mi WNW 10.4 mph 18.4 mph N/A   Overcast
9:14 AM 63.9 °F 62.8 °F 96% 29.74 in 5.0 mi NNW 8.1 mph - N/A   Overcast
9:35 AM 62.4 °F 61.7 °F 97% 29.74 in 2.5 mi NW 8.1 mph - 0.01 in Rain Light Rain
9:55 AM 62.4 °F 61.3 °F 96% 29.74 in 10.0 mi North - - 0.01 in   Overcast
10:15 AM 62.6 °F 61.3 °F 96% 29.75 in 10.0 mi North - - N/A   Overcast
10:35 AM 63.9 °F 61.7 °F 93% 29.76 in 10.0 mi North - - N/A   Overcast
10:55 AM 63.5 °F 61.3 °F 93% 29.76 in 10.0 mi North - - N/A   Overcast
11:15 AM 63.7 °F 61.3 °F 92% 29.76 in 10.0 mi WNW 12.7 mph 19.6 mph N/A   Overcast
11:35 AM 63.0 °F 61.0 °F 93% 29.77 in 10.0 mi North - - N/A   Overcast
11:54 AM 64.0 °F 60.4 °F 88% 29.78 in 10.0 mi North - - N/A   Overcast
12:15 PM 64.6 °F 60.1 °F 85% 29.79 in 10.0 mi North - - N/A   Overcast
12:34 PM 65.3 °F 60.4 °F 84% 29.79 in 10.0 mi North - - N/A   Overcast
12:55 PM 65.8 °F 60.6 °F 83% 29.80 in 10.0 mi North - - N/A   Overcast
1:15 PM 66.7 °F 60.6 °F 81% 29.80 in 10.0 mi West 8.1 mph - N/A   Overcast
1:34 PM 67.6 °F 59.5 °F 75% 29.81 in 10.0 mi WNW 10.4 mph - N/A   Overcast
1:55 PM 67.5 °F 59.5 °F 76% 29.81 in 10.0 mi West 8.1 mph - N/A   Overcast
2:15 PM 67.6 °F 60.3 °F 77% 29.82 in 10.0 mi West 6.9 mph - N/A   Overcast
2:34 PM 68.0 °F 59.5 °F 74% 29.82 in 10.0 mi West 10.4 mph 17.3 mph N/A   Overcast
2:55 PM 66.4 °F 59.7 °F 79% 29.83 in 10.0 mi West 10.4 mph 25.3 mph N/A   Overcast
3:15 PM 66.6 °F 59.5 °F 78% 29.84 in 10.0 mi West 11.5 mph 17.3 mph N/A   Overcast
3:34 PM 66.7 °F 58.5 °F 75% 29.85 in 10.0 mi NW 15.0 mph 23.0 mph N/A   Overcast
3:55 PM 67.1 °F 58.8 °F 75% 29.85 in 10.0 mi West 12.7 mph - N/A   Overcast
4:15 PM 66.6 °F 58.6 °F 76% 29.86 in 10.0 mi North - - N/A   Overcast
4:35 PM 66.6 °F 58.3 °F 75% 29.86 in 10.0 mi WNW 11.5 mph - N/A   Overcast
4:55 PM 65.7 °F 57.9 °F 76% 29.86 in 10.0 mi WNW 12.7 mph 21.9 mph N/A   Overcast
5:14 PM 63.9 °F 57.2 °F 79% 29.86 in 10.0 mi WNW 12.7 mph 20.7 mph N/A   Overcast
5:35 PM 63.5 °F 57.2 °F 80% 29.87 in 10.0 mi North - - N/A   Overcast
5:55 PM 62.2 °F 56.5 °F 81% 29.88 in 10.0 mi WNW 10.4 mph 23.0 mph N/A   Overcast
6:14 PM 61.7 °F 55.9 °F 81% 29.89 in 10.0 mi NW 13.8 mph 21.9 mph N/A   Overcast
6:35 PM 61.0 °F 56.3 °F 85% 29.89 in 10.0 mi NW 9.2 mph - N/A   Overcast
6:55 PM 60.4 °F 56.1 °F 86% 29.90 in 10.0 mi WNW 12.7 mph 18.4 mph N/A   Overcast
7:14 PM 59.5 °F 55.4 °F 86% 29.91 in 10.0 mi WNW 12.7 mph 21.9 mph N/A   Overcast
7:35 PM 58.6 °F 55.2 °F 88% 29.91 in 10.0 mi NW 8.1 mph 19.6 mph N/A   Overcast
7:54 PM 58.1 °F 54.9 °F 89% 29.91 in 7.0 mi WNW 12.7 mph 21.9 mph N/A   Overcast
8:15 PM 58.3 °F 54.5 °F 87% 29.91 in 10.0 mi WNW 4.6 mph - N/A   Mostly Cloudy
8:35 PM 57.4 °F 54.1 °F 89% 29.91 in 10.0 mi WNW 5.8 mph - N/A   Scattered Clouds
8:55 PM 56.7 °F 54.0 °F 91% 29.93 in 10.0 mi West 5.8 mph - N/A   Scattered Clouds
9:15 PM 55.0 °F 53.6 °F 95% 29.94 in 10.0 mi West 5.8 mph - N/A   Clear
9:35 PM 55.2 °F 52.9 °F 92% 29.94 in 10.0 mi WNW 6.9 mph - N/A   Clear
9:54 PM 54.7 °F 52.0 °F 91% 29.94 in 10.0 mi WNW 5.8 mph - N/A   Clear
10:15 PM 53.8 °F 51.3 °F 91% 29.95 in 10.0 mi West 6.9 mph - N/A   Clear
10:35 PM 53.4 °F 51.1 °F 92% 29.96 in 10.0 mi West 8.1 mph - N/A   Clear
10:55 PM 53.1 °F 50.9 °F 92% 29.96 in 10.0 mi West 9.2 mph 17.3 mph N/A   Clear
11:15 PM 52.5 °F 50.4 °F 92% 29.97 in 10.0 mi West 8.1 mph 16.1 mph N/A   Clear
11:34 PM 52.0 °F 50.0 °F 93% 29.97 in 10.0 mi West 6.9 mph 17.3 mph N/A   Clear
11:55 PM 51.8 °F 49.6 °F 92% 29.97 in 10.0 mi West 9.2 mph - N/A   Clear